CW8490 Weather Reports


Display with metric or nautical units.
time (UTC)temp
F
wind
direction
speed
MPH
gust
MPH
rain 1hr
in
rain 24hr
in
rain mn
in
humidity
%
barometer
mb
20260906104917 76 0.0 0.0 0.00 0.00 0.00 83 1013.6
20260906103917 76 0.0 0.0 0.00 0.00 0.00 83 1013.5
20260906102937 75 0.0 0.0 0.00 0.00 0.00 85 1013.3
20260906101917 75 0.0 0.0 0.00 0.00 0.00 85 1013.4
20260906100937 75 0.0 0.0 0.00 0.00 0.00 85 1013.4
20260906095917 75 0.0 0.0 0.00 0.00 0.00 84 1013.2
20260906094937 75 0.0 0.0 0.00 0.00 0.00 85 1013.3
20260906093917 75 0.0 0.0 0.00 0.00 0.00 85 1013.2
20260906092918 75 0.0 0.0 0.00 0.00 0.00 86 1013.1
20260906091938 75 0.0 0.0 0.00 0.00 0.00 86 1013.0
20260906090917 75 0.0 0.0 0.00 0.00 0.00 83 1012.9
20260906085918 76 0.0 0.0 0.00 0.00 0.00 84 1013.0
20260906084918 75 0.0 1.0 0.00 0.00 0.00 85 1012.8
20260906083917 75 0.0 0.0 0.00 0.00 0.00 86 1012.9
20260906082917 75 0.0 0.0 0.00 0.00 0.00 86 1012.8
20260906081917 76 0.0 0.0 0.00 0.00 0.00 85 1012.9
20260906080917 76 0.0 0.0 0.00 0.00 0.00 84 1012.8
20260906075917 76 0.0 0.0 0.00 0.00 0.00 84 1012.7
20260906074917 76 0.0 0.0 0.00 0.00 0.00 84 1012.8
20260906073917 77 0.0 0.0 0.00 0.00 0.00 83 1012.8
20260906072918 77 0.0 0.0 0.00 0.00 0.00 82 1012.7
20260906071917 78 0.0 0.0 0.00 0.00 0.00 82 1012.7
20260906070917 76 0.0 0.0 0.00 0.00 0.00 84 1012.7
20260906065918 76 0.0 0.0 0.00 0.00 0.00 85 1012.7
20260906064918 76 0.0 0.0 0.00 0.00 0.00 85 1012.8
20260906063918 76 0.0 0.0 0.00 0.00 0.00 84 1012.8
20260906062917 76 0.0 0.0 0.00 0.00 0.00 84 1012.8
20260906061918 76 0.0 0.0 0.00 0.00 0.00 84 1012.9
20260906060918 76 0.0 0.0 0.00 0.00 0.00 84 1013.0
20260906055917 76 0.0 0.0 0.00 0.00 0.00 85 1013.0
20260906054918 76 0.0 0.0 0.00 0.00 0.00 85 1013.2
20260906053918 77 0.0 0.0 0.00 0.00 0.00 85 1013.3
20260906052938 77 0.0 0.0 0.00 0.00 0.00 84 1013.3
20260906051917 77 0.0 0.0 0.00 0.00 0.00 84 1013.3
20260906050917 77 0.0 0.0 0.00 0.00 0.00 83 1013.1
20260906045916 77 0.0 0.0 0.00 0.00 0.00 83 1013.1
20260906045007 78 0.0 0.0 0.00 0.00 0.00 83 1013.2
20260906044700 78 0.0 0.0 0.00 0.00 0.00 83 1013.3
20260906043817 78 0.0 0.0 0.00 0.00 0.00 83 1013.2
20260906042816 78 0.0 0.0 0.00 0.00 0.00 80 1013.1
20260906041816 79 0.0 0.0 0.00 0.00 0.00 78 1013.1
20260906040816 79 0.0 0.0 0.00 0.00 0.00 78 1013.0
20260906035816 79 0.0 0.0 0.00 0.00 0.00 79 1013.0
20260906034816 79 0.0 0.0 0.00 0.00 0.00 79 1012.8
20260906033816 80 0.0 0.0 0.00 0.00 0.00 78 1012.8
20260906032816 81 0.0 0.0 0.00 0.00 0.00 78 1012.7
20260906031817 81 0.0 0.0 0.00 0.00 0.00 76 1012.8
20260906030817 81 0.0 0.0 0.00 0.00 0.00 76 1012.4
20260906025816 81 0.0 0.0 0.00 0.00 0.00 77 1012.3
20260906024816 81 0.0 0.0 0.00 0.00 0.00 77 1012.2
20260906023856 81 0.0 0.0 0.00 0.00 0.00 79 1012.1
20260906022816 82 0.0 0.0 0.00 0.00 0.00 78 1012.0
20260906021816 83 0.0 0.0 0.00 0.00 0.00 77 1011.9
20260906020837 83 0.0 0.0 0.00 0.00 0.00 76 1011.7
20260906015817 83 0.0 0.0 0.00 0.00 0.00 76 1011.6
20260906014836 84 0.0 0.0 0.00 0.00 0.00 74 1011.4
20260906013816 85 0.0 0.0 0.00 0.00 0.00 72 1011.2
20260906012817 86 0.0 0.0 0.00 0.00 0.00 71 1011.2
20260906011817 87 0.0 0.0 0.00 0.00 0.00 69 1011.2
20260906010817 87 0.0 0.0 0.00 0.00 0.00 68 1011.1
20260906005836 88 0.0 0.0 0.00 0.00 0.00 67 1011.0
20260906004817 88 68 1.0 2.0 0.00 0.00 0.00 68 1011.0
20260906003817 88 0.0 1.0 0.00 0.00 0.00 67 1010.8
20260906002816 90 0.0 1.0 0.00 0.00 0.00 65 1011.0
20260906001934 92 0.0 0.0 0.00 0.00 0.00 61 1011.1
20260906001805 92 0.0 0.0 0.00 0.00 0.00 61 1011.1
20260906001512 92 0.0 0.0 0.00 0.00 0.00 61 1011.1
20260906000418 93 68 1.0 2.0 0.00 0.00 0.00 59 1011.1
20260905235417 94 68 2.0 2.0 0.00 0.00 0.00 59 1011.1
20260905234416 94 68 2.0 3.0 0.00 0.00 0.00 57 1011.0
20260905233416 94 68 2.0 3.0 0.00 0.00 0.00 56 1011.0
20260905232417 95 68 3.0 5.0 0.00 0.00 0.00 55 1010.9
20260905231457 96 90 3.0 5.0 0.00 0.00 0.00 56 1011.0
20260905230417 96 90 2.0 3.0 0.00 0.00 0.00 55 1011.0
20260905225417 96 45 2.0 4.0 0.00 0.00 0.00 53 1010.9
20260905224417 96 90 2.0 3.0 0.00 0.00 0.00 55 1010.9
20260905223417 96 68 3.0 6.0 0.00 0.00 0.00 54 1010.9
20260905222417 96 90 3.0 5.0 0.00 0.00 0.00 54 1011.0
20260905221457 97 90 4.0 7.0 0.00 0.00 0.00 54 1011.1
20260905220417 97 68 4.0 8.0 0.00 0.00 0.00 55 1011.3
20260905215417 98 68 4.0 7.0 0.00 0.00 0.00 53 1011.4
20260905214417 99 338 1.0 2.0 0.00 0.00 0.00 49 1011.5
20260905213417 100 23 2.0 5.0 0.00 0.00 0.00 49 1011.5
20260905212417 101 68 1.0 3.0 0.00 0.00 0.00 48 1011.7
20260905211417 100 135 1.0 3.0 0.00 0.00 0.00 46 1011.9
20260905210417 101 90 2.0 4.0 0.00 0.00 0.00 47 1011.9
20260905205438 100 0.0 0.0 0.00 0.00 0.00 46 1012.0
20260905204417 100 0.0 1.0 0.00 0.00 0.00 46 1012.0
20260905203417 99 0.0 0.0 0.00 0.00 0.00 49 1012.2
20260905202417 98 90 2.0 3.0 0.00 0.00 0.00 49 1012.3
20260905201437 98 0.0 1.0 0.00 0.00 0.00 50 1012.4
20260905200417 98 68 2.0 4.0 0.00 0.00 0.00 48 1012.5
20260905195417 98 45 3.0 4.0 0.00 0.00 0.00 48 1012.6
20260905194417 98 90 4.0 6.0 0.00 0.00 0.00 48 1012.7
20260905193417 99 0.0 1.0 0.00 0.00 0.00 48 1012.9
20260905192457 99 90 2.0 4.0 0.00 0.00 0.00 49 1012.9
20260905191450 99 0.0 0.0 0.00 0.00 0.00 49 1013.0
20260905191215 99 0.0 0.0 0.00 0.00 0.00 49 1013.0
20260905190717 100 113 2.0 3.0 0.00 0.00 0.00 50 1013.3
20260905185717 97 0.0 0.0 0.00 0.00 0.00 52 1013.2
20260905184717 96 90 1.0 2.0 0.00 0.00 0.00 52 1013.3
20260905183718 95 68 3.0 4.0 0.00 0.00 0.00 53 1013.3
20260905182717 95 68 4.0 4.0 0.00 0.00 0.00 56 1013.5
20260905181717 96 68 2.0 3.0 0.00 0.00 0.00 52 1013.6
20260905180717 96 0.0 1.0 0.00 0.00 0.00 52 1013.8
20260905175717 98 270 2.0 5.0 0.00 0.00 0.00 49 1014.0
20260905174717 97 225 1.0 3.0 0.00 0.00 0.00 53 1014.0
20260905173717 97 225 2.0 3.0 0.00 0.00 0.00 51 1014.2
20260905172718 98 270 1.0 3.0 0.00 0.00 0.00 52 1014.4
20260905171717 98 203 2.0 4.0 0.00 0.00 0.00 53 1014.5
20260905170717 98 135 2.0 3.0 0.00 0.00 0.00 53 1014.7
20260905165717 97 0.0 1.0 0.00 0.00 0.00 53 1014.7
20260905164718 97 248 1.0 2.0 0.00 0.00 0.00 56 1014.8
20260905163718 96 270 2.0 3.0 0.00 0.00 0.00 56 1014.7
20260905162717 96 270 2.0 3.0 0.00 0.00 0.00 57 1014.7
20260905161717 94 0.0 1.0 0.00 0.00 0.00 59 1014.7
20260905160717 94 293 1.0 4.0 0.00 0.00 0.00 58 1014.6
20260905155757 93 0.0 0.0 0.00 0.00 0.00 61 1014.5
20260905155615 93 0.0 0.0 0.00 0.00 0.00 61 1014.5
20260905155317 93 0.0 0.0 0.00 0.00 0.00 61 1014.5
20260905154317 94 0.0 1.0 0.00 0.00 0.00 59 1014.5
20260905153317 94 0.0 1.0 0.00 0.00 0.00 61 1014.5
20260905152317 94 113 1.0 2.0 0.00 0.00 0.00 60 1014.5
20260905151317 93 0.0 0.0 0.00 0.00 0.00 63 1014.5
20260905150317 92 135 2.0 3.0 0.00 0.00 0.00 66 1014.4
20260905145317 91 203 1.0 2.0 0.00 0.00 0.00 67 1014.4
20260905144318 89 0.0 1.0 0.00 0.00 0.00 68 1014.3
20260905143317 88 135 1.0 2.0 0.00 0.00 0.00 69 1014.3
20260905142318 87 203 2.0 3.0 0.00 0.00 0.00 69 1014.0
20260905141317 87 225 1.0 2.0 0.00 0.00 0.00 70 1014.1
20260905140317 85 0.0 0.0 0.00 0.00 0.00 74 1014.1
20260905135318 84 0.0 0.0 0.00 0.00 0.00 76 1014.1
20260905134349 0 0.0 0.0 0.00 0.00 0.00
20260905134219 0 0.0 0.0 0.00 0.00 0.00
20260905133938 0 0.0 0.0 0.00 0.00 0.00
20260905133800 0 0.0 0.0 0.00 0.00 0.00
20260905133521 81 0.0 0.0 0.00 0.00 0.00 82 1013.6
20260905132816 79 0.0 0.0 0.00 0.00 0.00 87 1013.5
20260905131816 77 0.0 0.0 0.00 0.00 0.00 87 1013.4
20260905130816 77 0.0 0.0 0.00 0.00 0.00 88 1013.4
20260905125816 77 0.0 0.0 0.00 0.00 0.00 86 1013.4
20260905124816 78 0.0 0.0 0.00 0.00 0.00 85 1013.4
20260905123816 77 0.0 0.0 0.00 0.00 0.00 91 1013.4
20260905122816 74 0.0 0.0 0.00 0.00 0.00 92 1013.2
20260905121816 73 0.0 0.0 0.00 0.00 0.00 92 1013.1
20260905120816 72 0.0 0.0 0.00 0.00 0.00 91 1013.1
20260905115816 72 0.0 0.0 0.00 0.00 0.00 91 1013.1
20260905114816 73 0.0 0.0 0.00 0.00 0.00 91 1013.0
20260905113816 73 0.0 0.0 0.00 0.00 0.00 92 1012.9
20260905112816 72 0.0 0.0 0.00 0.00 0.00 93 1012.7
20260905111836 72 0.0 0.0 0.00 0.00 0.00 93 1012.7
20260905110816 72 0.0 0.0 0.00 0.00 0.00 94 1012.5
20260905105817 72 0.0 0.0 0.00 0.00 0.00 94 1012.6